Temp
9 7 7 9 9 9 10 10 10 11 11 11 11 11 11 11 11 11 11 10 11 11 11 10 9 9 9 9 8 8 8 8 9 9 9 8 7 7 8 8 8 7 6 6
6 6 8 8 9 9 10 10 10 10 10 11 11 10 10 10 11 11 11 11 11 11 10 9 9 9 9 9 8 8 7 8 9 9 9 7 7 7 7 7 6 6 6 6
6 8 8 8 8 9 9 9 9 10 9 9 9 9 10 11 11 11 11 11 11 10 9 9 9 9 9 8 8 7 6 10 9 8 8 8 8 7 7 7 6 6 6 6
6 8 8 9 9 9 9 9 9 8 8 8 9 10 9 10 11 11 10 10 10 10 9 9 9 10 9 8 8 9 9 9 9 8 8 8 7 7 7 6 6 6 6 6
8 7 8 8 8 8 8 8 8 8 8 8 8 9 10 12 12 11 10 10 10 10 9 9 9 8 9 8 8 8 8 8 8 9 8 8 7 7 7 6 6 6 6 5
5 6 7 8 7 7 7 7 7 7 7 7 8 8 10 11 11 11 9 10 9 9 9 9 9 9 9 8 8 8 8 8 8 8 8 8 7 7 7 7 6 6 5 5
3 4 5 6 5 5 6 6 7 7 7 8 9 11 10 10 10 9 9 9 9 10 9 9 8 8 8 8 8 8 8 8 8 8 8 8 8 7 6 6 6 5 5 5
5 5 5 5 5 5 6 6 7 8 9 11 11 11 11 11 10 9 8 7 7 8 8 8 8 8 9 8 7 7 7 7 7 7 7 7 7 7 7 4 5 4 4 4
7 6 8 6 5 5 6 6 7 7 8 8 9 10 10 10 9 8 8 7 7 7 7 7 7 7 8 8 8 7 7 7 7 7 7 7 7 5 4 4 3 3 3 3
6 6 7 6 6 5 6 7 7 7 6 6 9 10 11 10 8 7 7 6 6 6 6 6 6 6 6 6 6 6 6 6 6 6 6 6 5 5 3 3 3 3 3 3
5 5 6 5 6 6 5 5 6 6 7 6 7 8 9 9 8 7 6 6 5 5 4 4 5 5 5 5 6 6 6 5 5 5 5 5 5 3 2 2 2 2 1 1
5 5 6 6 5 6 6 6 6 6 6 6 6 6 7 8 8 6 6 5 5 5 4 4 3 4 4 4 5 5 5 5 4 4 4 4 3 3 2 2 2 2 2 2
4 2 4 5 4 5 4 5 6 6 5 4 4 5 6 6 6 6 5 5 4 4 4 4 3 3 3 3 3 4 4 4 3 4 4 3 2 2 2 2 2 2 1 1
1 2 3 4 5 5 3 4 4 5 5 4 4 4 5 4 5 5 4 4 3 3 3 3 2 2 1 1 1 2 2 2 3 2 1 1 1 1 1 1 1 1 1 1
-0 0 2 2 3 3 4 3 4 3 4 4 4 3 4 3 3 3 3 3 3 2 3 2 2 2 1 1 0 0 -0 1 1 1 1 0 1 0 0 -0 -0 -0 -0 -0
-1 -1 0 0 1 2 2 2 2 3 3 4 3 2 2 3 3 3 3 2 2 1 1 1 1 1 1 0 0 1 -1 -1 -0 -2 -2 -2 -1 -1 -1 -1 -1 -1 -1 -2
-2 -1 -2 -1 -0 -0 -1 1 0 1 2 2 2 2 2 1 1 1 1 1 1 0 0 -0 0 -0 -0 -0 0 -0 -1 -0 -1 -1 -2 -2 -2 -2 -2 -1 -1 -2 -3 -2
-2 -2 -2 -2 -2 -1 1 1 1 1 1 0 0 -1 -1 -1 -1 -0 -0 -0 -0 -0 -1 -0 -0 -0 -1 -1 -1 -1 -1 -1 -1 -2 -2 -2 -4 -3 -2 -1 -2 -2 -2 -3
-3 -3 -3 -3 -2 -1 -0 -1 -1 -2 -2 -2 -3 -3 -2 -3 -1 -3 -2 -1 -1 -1 -1 -1 -1 -1 -1 -2 -2 -2 -1 -2 -2 -2 -3 -3 -3 -4 -3 -2 -2 -3 -3 -3
-4 -4 -5 -5 -4 -3 -2 -2 -2 -3 -3 -3 -3 -3 -3 -3 -2 -3 -3 -3 -3 -3 -2 -3 -3 -2 -2 -2 -2 -2 -2 -2 -1 -2 -3 -3 -2 -3 -4 -3 -3 -3 -3 -3
-5 -5 -5 -5 -5 -5 -3 -4 -3 -4 -4 -4 -5 -5 -5 -5 -5 -3 -4 -4 -4 -5 -5 -5 -5 -4 -4 -4 -4 -2 -2 -2 -2 -2 -3 -3 -3 -4 -4 -3 -3 -3 -4 -4
-5 -6 -6 -6 -5 -5 -4 -5 -5 -4 -5 -6 -7 -6 -6 -6 -6 -6 -6 -6 -5 -5 -5 -5 -6 -6 -6 -7 -6 -4 -3 -3 -3 -3 -4 -4 -4 -4 -3 -4 -4 -4 -4 -4
-6 -5 -4 -5 -5 -6 -6 -7 -6 -7 -7 -7 -7 -7 -7 -7 -8 -7 -6 -6 -6 -6 -6 -6 -6 -6 -6 -7 -7 -7 -4 -5 -3 -4 -3 -3 -3 -4 -4 -4 -5 -4 -4 -4
-5 -5 -5 -5 -5 -6 -6 -7 -7 -7 -7 -7 -7 -8 -8 -8 -8 -9 -9 -8 -8 -8 -9 -9 -9 -8 -7 -7 -7 -7 -7 -5 -5 -4 -4 -3 -3 -3 -4 -4 -5 -5 -4 -5
-6 -6 -6 -6 -6 -7 -7 -7 -7 -7 -8 -8 -8 -9 -9 -9 -9 -9 -9 -9 -9 -9 -9 -9 -10 -10 -9 -8 -8 -8 -7 -6 -6 -5 -4 -3 -3 -3 -3 -4 -4 -5 -4 -5
-7 -7 -7 -8 -8 -8 -8 -8 -8 -8 -9 -9 -9 -9 -9 -9 -10 -10 -9 -10 -10 -10 -10 -10 -10 -10 -9 -9 -8 -8 -8 -7 -8 -7 -5 -4 -3 -3 -3 -3 -4 -5 -6 -6
Height
3108 3107 3104 3108 3112 3112 3113 3113 3110 3111 3115 3114 3109 3101 3103 3105 3102 3100 3099 3099 3099 3100 3101 3098 3098 3097 3099 3102 3104 3099 3098 3099 3102 3106 3108 3109 3110 3111 3115 3119 3120 3123 3125 3123
3106 3096 3103 3108 3109 3109 3109 3107 3104 3102 3108 3108 3100 3089 3094 3094 3091 3091 3089 3090 3091 3092 3091 3092 3089 3089 3093 3097 3099 3096 3094 3094 3096 3100 3103 3103 3104 3106 3111 3113 3115 3116 3118 3118
3096 3093 3101 3102 3103 3104 3102 3102 3102 3099 3101 3100 3097 3077 3084 3084 3083 3082 3083 3083 3082 3084 3085 3085 3084 3085 3088 3090 3091 3093 3088 3090 3092 3095 3096 3098 3100 3102 3106 3108 3109 3110 3111 3112
3086 3091 3095 3095 3094 3099 3091 3101 3097 3096 3096 3090 3097 3070 3080 3077 3076 3077 3077 3077 3077 3078 3081 3079 3078 3081 3084 3084 3087 3089 3087 3088 3087 3090 3092 3093 3094 3097 3100 3101 3103 3104 3104 3105
3063 3081 3087 3085 3087 3093 3081 3094 3092 3091 3090 3088 3090 3084 3071 3072 3070 3069 3069 3073 3074 3074 3076 3076 3077 3078 3080 3083 3083 3084 3086 3083 3083 3085 3087 3087 3089 3090 3092 3094 3096 3097 3098 3099
3062 3077 3078 3079 3079 3082 3085 3087 3086 3086 3087 3079 3081 3080 3069 3067 3066 3065 3066 3070 3072 3073 3073 3073 3074 3075 3076 3077 3078 3078 3081 3080 3080 3080 3080 3080 3081 3082 3085 3085 3086 3088 3090 3090
3060 3056 3064 3070 3071 3074 3080 3082 3082 3080 3078 3068 3069 3067 3064 3065 3065 3066 3067 3068 3071 3073 3072 3070 3070 3070 3071 3072 3073 3073 3073 3073 3074 3074 3074 3074 3074 3074 3075 3076 3077 3078 3080 3081
3051 3048 3046 3047 3055 3066 3070 3073 3070 3069 3063 3060 3060 3059 3061 3060 3063 3063 3064 3066 3066 3068 3067 3067 3068 3067 3067 3067 3067 3067 3066 3066 3066 3066 3067 3066 3066 3065 3066 3066 3067 3067 3070 3071
3044 3042 3036 3039 3050 3059 3063 3063 3067 3065 3063 3061 3058 3057 3057 3056 3057 3057 3060 3061 3063 3063 3063 3064 3064 3063 3062 3060 3060 3059 3059 3059 3059 3058 3058 3058 3057 3058 3058 3058 3058 3058 3059 3061
3039 3039 3038 3039 3047 3051 3052 3060 3062 3063 3062 3062 3050 3053 3055 3056 3053 3056 3057 3056 3057 3056 3056 3057 3057 3056 3055 3055 3054 3054 3052 3052 3052 3051 3051 3050 3049 3049 3050 3051 3052 3051 3053 3051
3035 3037 3037 3037 3038 3042 3048 3049 3054 3056 3055 3054 3049 3047 3053 3052 3054 3056 3056 3054 3052 3052 3049 3046 3049 3050 3050 3049 3047 3046 3045 3047 3046 3045 3045 3044 3043 3043 3043 3044 3044 3045 3045 3046
3027 3031 3031 3032 3035 3039 3041 3043 3047 3048 3048 3047 3048 3027 3050 3049 3050 3050 3049 3051 3051 3051 3048 3044 3041 3045 3044 3042 3042 3042 3041 3041 3040 3039 3039 3038 3037 3038 3038 3039 3039 3039 3040 3042
3017 3022 3026 3029 3033 3033 3034 3037 3039 3041 3042 3039 3047 3020 3042 3040 3043 3045 3044 3045 3044 3044 3044 3041 3038 3036 3038 3034 3034 3035 3035 3034 3035 3034 3033 3031 3031 3032 3032 3034 3035 3035 3037 3038
3011 3016 3019 3020 3024 3030 3031 3032 3032 3033 3032 3031 3029 3029 3021 3033 3036 3037 3036 3036 3035 3037 3036 3035 3032 3030 3032 3030 3028 3027 3025 3027 3028 3028 3028 3026 3026 3026 3025 3027 3029 3030 3031 3033
3008 3011 3017 3018 3020 3023 3024 3026 3023 3024 3025 3025 3016 3026 3016 3025 3027 3030 3030 3030 3029 3026 3028 3027 3026 3023 3024 3025 3020 3019 3020 3019 3020 3019 3021 3022 3019 3020 3019 3021 3023 3024 3025 3027
3004 3004 3012 3010 3013 3015 3016 3016 3013 3016 3016 3015 3018 3015 3019 3018 3019 3021 3022 3020 3017 3018 3016 3018 3017 3015 3013 3014 3014 3014 3015 3014 3014 3007 3013 3013 3013 3012 3014 3014 3018 3021 3021 3022
2997 3000 3004 3001 3010 3010 3005 2998 3007 3007 3007 3009 3007 3009 3008 3009 3007 3005 3003 3005 3006 3005 3005 3004 3005 3005 3007 3005 3006 3005 3009 3009 3009 2998 3002 3004 3006 3009 3008 3007 3010 3017 3016 3017
2991 2994 2997 2995 3001 2996 2989 2992 2997 2996 2996 2995 2996 2994 2995 2993 2995 2994 2994 2993 2993 2996 2994 2995 2994 2995 2995 2995 2996 2996 3000 3002 2999 2999 2998 2992 2999 3004 3003 3003 3008 3009 3010 3014
2981 2983 2985 2988 2987 2984 2984 2986 2987 2986 2989 2988 2989 2987 2988 2988 2988 2984 2987 2987 2987 2986 2987 2986 2987 2986 2985 2987 2988 2987 2989 2992 2990 2989 2991 2989 2986 2995 2996 2997 3002 3005 3006 3008
2974 2977 2981 2979 2980 2975 2976 2978 2980 2983 2984 2982 2981 2981 2980 2980 2980 2980 2977 2979 2979 2977 2975 2975 2975 2974 2973 2975 2975 2974 2975 2977 2979 2979 2979 2982 2983 2983 2987 2993 2996 2999 3001 3004
2967 2969 2972 2976 2974 2970 2973 2973 2975 2981 2982 2976 2977 2977 2974 2974 2971 2969 2969 2970 2969 2968 2967 2966 2964 2961 2961 2961 2960 2961 2964 2963 2964 2966 2968 2971 2973 2974 2980 2985 2988 2992 2995 2998
2957 2964 2968 2971 2971 2969 2968 2970 2973 2971 2971 2972 2972 2971 2969 2968 2965 2961 2961 2960 2957 2958 2957 2955 2953 2952 2951 2950 2948 2946 2950 2952 2953 2954 2957 2959 2961 2966 2967 2973 2979 2985 2989 2992
2955 2955 2961 2963 2963 2962 2964 2965 2965 2964 2964 2966 2967 2966 2965 2961 2957 2953 2950 2948 2946 2943 2942 2942 2941 2941 2942 2941 2939 2934 2937 2940 2941 2944 2946 2949 2951 2955 2958 2961 2969 2976 2980 2984
2949 2953 2954 2958 2959 2959 2960 2959 2959 2959 2959 2960 2958 2955 2954 2951 2948 2944 2940 2937 2934 2931 2929 2929 2927 2926 2928 2928 2928 2928 2922 2928 2929 2930 2932 2937 2939 2943 2947 2952 2958 2964 2970 2975
2944 2948 2950 2951 2953 2952 2952 2952 2952 2952 2951 2949 2949 2947 2945 2941 2939 2936 2933 2930 2926 2923 2920 2917 2916 2915 2913 2915 2915 2916 2911 2916 2916 2917 2920 2923 2926 2931 2935 2941 2948 2953 2961 2965
2938 2940 2943 2943 2946 2946 2945 2947 2947 2944 2943 2940 2940 2938 2935 2933 2930 2926 2920 2918 2915 2911 2908 2906 2902 2901 2899 2900 2899 2902 2899 2903 2904 2904 2905 2909 2914 2919 2924 2929 2936 2943 2950 2955
Wind_Speed
30 29 29 29 26 26 24 26 30 30 28 31 38 42 36 34 38 38 40 39 34 31 30 30 23 28 28 30 24 36 41 42 33 30 30 29 34 36 34 30 30 29 29 33
20 33 27 22 23 25 27 31 35 37 29 30 36 43 35 33 38 32 31 28 26 25 24 22 24 29 29 26 22 34 41 37 33 27 30 28 34 39 31 29 31 29 29 33
28 31 23 25 27 30 32 30 30 34 31 30 32 50 34 26 23 18 17 17 24 22 14 16 27 32 26 26 24 32 36 31 27 25 30 32 34 35 34 33 32 33 34 34
34 32 34 33 32 26 38 28 31 30 30 32 21 36 29 28 25 28 12 20 16 18 18 25 30 23 19 26 26 26 29 31 30 28 30 31 33 35 34 35 36 37 37 38
55 30 27 32 36 32 42 29 31 30 29 30 26 24 27 11 13 11 17 16 14 9 8 16 21 22 20 20 24 26 26 27 31 31 32 34 35 38 39 39 40 41 39 38
52 35 33 32 28 24 22 21 22 21 23 24 27 26 14 6 7 18 14 12 4 10 7 9 12 17 19 20 25 29 28 31 31 32 34 36 38 39 42 43 44 43 42 40
40 48 44 38 27 23 21 20 11 10 11 12 21 19 26 6 6 6 11 14 15 10 17 22 19 17 16 19 22 24 26 28 30 33 36 38 40 39 39 46 49 41 44 44
26 16 40 42 45 24 25 26 12 8 10 13 13 12 10 13 10 15 13 12 14 9 11 9 16 17 19 22 23 24 24 24 27 29 31 33 37 40 41 39 36 39 44 40
16 21 13 21 31 33 27 29 28 25 22 18 16 19 24 15 15 13 11 11 11 11 11 10 14 20 24 24 26 25 24 25 26 27 29 31 35 37 37 34 37 38 38 39
13 7 18 13 29 26 29 18 20 19 6 8 12 17 13 6 8 8 10 13 14 15 16 17 21 21 25 27 28 25 21 25 28 26 26 29 32 31 33 30 31 27 34 31
27 12 18 19 24 24 22 23 18 18 21 4 8 14 6 5 5 3 8 11 15 14 22 27 25 18 23 28 29 26 26 30 31 28 26 25 23 20 21 21 21 23 25 24
27 16 17 23 18 21 21 22 22 23 25 22 22 40 27 25 23 18 22 19 14 17 22 27 30 31 27 30 32 31 31 31 32 31 30 28 25 22 19 18 18 18 17 16
27 13 16 15 21 22 21 22 24 25 30 36 18 43 28 33 25 24 29 29 23 19 21 29 32 38 33 35 35 35 35 34 31 32 32 29 24 20 18 18 19 18 17 17
18 19 21 18 22 18 13 28 35 35 32 31 40 43 53 38 32 31 31 30 29 27 22 24 30 35 24 28 33 36 35 33 34 33 30 26 24 20 18 19 19 18 18 17
19 22 25 30 31 31 32 25 29 28 34 34 46 35 51 41 33 32 33 36 35 37 34 31 32 38 34 35 25 19 23 35 44 41 30 23 23 21 21 20 20 20 19 17
25 25 27 36 35 32 33 36 38 35 36 37 35 40 40 42 43 38 35 30 31 27 35 34 35 36 37 38 40 33 32 31 32 35 32 21 20 21 21 22 20 21 20 17
27 31 25 36 32 29 29 48 40 43 44 41 42 43 42 38 35 35 34 28 32 31 35 36 38 38 40 43 45 40 40 38 39 37 34 36 19 25 25 21 22 21 19 18
39 34 33 28 22 10 34 30 28 34 38 36 36 35 32 33 34 38 37 34 34 35 39 44 44 46 46 42 47 46 44 48 44 35 35 29 19 20 23 22 20 19 19 20
35 38 17 14 19 20 25 12 14 11 13 16 17 18 21 23 23 26 29 33 39 44 45 46 49 51 45 39 39 46 50 48 44 39 40 39 26 25 25 25 21 20 19 20
28 25 22 11 6 8 9 14 19 18 14 19 23 25 27 27 27 22 29 33 36 39 42 42 44 47 50 49 47 48 52 53 49 50 47 45 32 33 25 27 24 21 21 20
24 19 23 19 10 10 16 15 20 11 12 17 19 20 22 27 28 35 36 37 34 37 42 43 43 44 40 41 44 42 40 40 39 41 40 35 35 28 26 28 30 25 25 22
22 16 14 14 13 13 15 15 14 15 16 17 19 27 30 31 36 40 41 44 47 46 44 44 41 41 41 37 39 42 38 38 38 40 42 43 37 38 40 34 33 33 30 29
15 20 17 10 9 8 8 4 9 12 16 18 21 26 27 29 36 45 50 50 51 52 51 45 44 39 35 33 35 40 45 38 42 39 41 42 46 38 45 37 39 38 36 34
20 20 16 19 24 17 14 17 17 18 20 22 24 23 29 34 37 41 44 47 48 49 49 46 40 39 37 35 36 39 45 33 39 42 40 45 48 43 45 44 43 40 37 36
23 16 18 20 21 21 22 22 22 18 21 26 31 28 31 33 35 37 39 40 43 45 46 48 46 40 43 39 40 38 47 34 39 42 43 43 45 43 44 47 44 40 39 38
22 21 20 24 22 22 22 21 20 24 26 25 24 26 29 32 36 37 38 40 43 43 43 43 49 47 42 40 42 39 46 40 33 44 44 41 43 45 44 46 46 43 40 36
Wind_Direction
250 243 231 239 245 250 259 268 271 276 285 289 286 284 284 276 277 279 275 277 274 271 272 264 259 251 237 239 237 246 253 264 267 248 252 247 241 244 248 252 249 252 256 258
228 240 242 243 246 250 258 267 272 280 283 288 289 282 281 275 271 285 289 286 284 269 263 260 248 252 245 243 231 240 250 263 267 248 248 245 245 248 253 251 252 255 256 260
235 243 246 249 249 253 257 262 275 280 290 287 290 285 288 289 285 237 241 247 246 251 229 235 241 248 255 239 233 232 249 260 266 239 246 251 249 251 250 251 253 256 260 262
248 252 243 249 248 251 262 262 275 279 288 283 285 291 287 286 269 246 268 252 261 268 239 220 239 264 247 238 250 258 267 266 263 247 248 250 250 251 250 255 255 257 260 263
244 243 241 245 253 256 265 268 266 269 274 283 274 272 289 291 261 245 218 230 266 280 271 247 259 263 262 249 258 262 265 271 266 258 252 249 248 250 250 250 253 256 259 261
248 243 244 247 256 252 262 263 257 252 263 262 264 243 291 293 75 151 180 227 285 308 291 292 280 275 269 262 258 263 264 266 267 264 260 256 250 249 251 253 254 256 258 260
246 245 240 242 252 242 248 238 226 230 225 245 255 243 233 238 243 212 246 282 295 301 283 291 288 281 277 268 266 266 267 267 266 266 265 265 264 259 252 252 252 257 255 254
234 251 234 229 223 230 226 212 198 213 225 252 264 252 247 234 259 268 264 270 284 296 287 283 294 296 290 279 268 270 268 269 270 269 267 264 262 261 259 252 258 257 253 255
225 234 261 216 207 212 220 215 222 262 282 292 268 269 277 263 257 240 265 267 263 289 279 271 293 292 285 272 266 265 266 273 275 274 270 267 263 253 256 253 260 256 251 256
239 217 192 168 195 213 213 213 214 223 244 239 248 251 253 288 200 287 301 297 278 284 272 274 297 284 272 270 273 272 267 292 286 278 271 264 258 256 255 261 247 251 257 251
223 238 197 186 187 191 207 231 225 226 232 250 273 261 279 248 273 3 316 303 291 288 283 285 292 289 275 278 274 268 279 291 282 278 261 255 252 249 245 246 251 254 256 260
210 223 208 203 199 203 218 225 230 228 238 244 252 266 254 254 268 303 286 284 282 279 286 282 277 291 280 276 278 270 275 282 279 273 263 259 255 252 256 258 255 252 252 254
200 202 204 215 234 236 233 234 237 239 243 245 247 258 257 267 274 285 288 285 281 285 277 279 283 272 281 265 264 269 270 270 265 264 260 257 254 253 256 253 248 248 248 242
194 213 212 225 231 230 239 249 248 246 247 250 244 256 266 270 274 275 281 279 290 275 258 263 253 266 258 257 268 263 259 261 262 256 252 252 254 256 249 245 243 241 239 235
222 242 244 249 254 257 263 259 251 246 251 248 257 258 260 270 276 279 277 282 278 281 275 270 271 261 257 257 236 235 270 271 267 257 249 254 256 249 238 233 233 233 228 224
225 234 244 254 251 254 264 257 257 260 258 255 256 263 268 281 287 282 278 278 281 273 279 270 267 263 257 257 244 243 272 247 250 252 248 255 252 246 233 230 233 233 227 223
225 234 240 251 252 252 258 252 255 257 258 261 262 264 268 268 271 273 275 274 268 262 256 258 249 255 256 252 249 242 258 254 255 239 250 246 259 248 232 223 228 230 230 230
256 248 235 247 257 232 263 272 258 258 257 257 258 256 254 255 257 262 264 264 256 251 251 256 261 268 260 253 263 271 262 259 245 245 251 249 243 253 239 237 238 238 239 239
236 229 212 223 230 257 261 249 247 251 258 257 255 265 266 270 269 284 279 276 274 270 267 265 268 271 264 263 265 265 258 269 254 262 272 267 243 244 247 233 237 242 248 247
228 228 222 205 225 221 243 244 247 265 258 258 270 274 278 278 275 277 272 273 276 275 277 275 270 270 270 271 273 271 265 265 258 264 253 255 242 238 238 240 240 248 249 249
198 210 224 231 241 245 251 244 261 250 264 259 270 282 287 284 282 277 281 275 279 280 281 281 281 276 278 279 275 273 275 266 264 266 254 244 243 249 235 241 239 239 241 245
190 192 211 230 248 261 239 234 234 240 253 289 291 287 289 291 287 283 284 290 291 291 288 289 288 290 291 295 287 276 272 271 261 258 251 250 252 254 246 233 235 234 236 242
208 200 200 207 222 213 198 235 269 278 285 283 287 290 287 284 284 291 292 291 290 291 290 284 280 277 270 277 284 290 274 268 266 261 253 245 251 252 242 227 228 233 234 241
226 231 244 251 237 245 260 268 269 280 286 287 274 277 276 279 280 285 292 295 297 298 300 296 291 281 264 257 261 276 282 276 262 264 255 245 252 244 239 228 228 229 235 242
215 231 238 248 253 262 263 275 284 284 274 274 277 288 294 297 293 292 292 290 287 287 288 290 290 276 273 270 254 253 268 276 257 256 254 248 244 240 237 227 223 231 234 244
228 244 249 256 264 263 275 280 277 273 276 285 295 294 281 279 286 285 281 280 280 282 283 283 285 285 282 272 264 248 253 265 265 255 251 245 237 235 232 226 223 227 232 237